EDT,Max TemperatureF,Mean TemperatureF,Min TemperatureF,Max Dew PointF,MeanDew PointF,Min DewpointF,Max Humidity, Mean Humidity, Min Humidity, Max Sea Level PressureIn, Mean Sea Level PressureIn, Min Sea Level PressureIn, Max VisibilityMiles, Mean VisibilityMiles, Min VisibilityMiles, Max Wind SpeedMPH, Mean Wind SpeedMPH, Max Gust SpeedMPH,PrecipitationIn, CloudCover, Events, WindDirDegrees
2013-10-1,82,68,53,61,52,46,100,66,30,30.20,30.14,30.09,10,10,10,8,1,,0.00,0,,8
2013-10-2,86,70,53,61,55,50,100,65,31,30.20,30.15,30.11,10,10,10,7,1,,0.00,1,,305
2013-10-3,86,72,59,63,56,50,100,64,29,30.19,30.15,30.10,10,10,10,8,2,,0.00,1,,150
2013-10-4,87,74,60,70,59,54,100,71,31,30.20,30.16,30.11,10,9,0,7,1,,0.00,2,Fog,11
2013-10-5,89,74,59,63,59,54,100,66,31,30.18,30.13,30.07,10,10,7,7,1,,0.00,2,,103
2013-10-6,86,72,59,72,63,57,100,75,37,30.10,30.03,29.95,10,9,0,10,3,,0.00,2,Fog-Rain,143
2013-10-7,78,74,69,73,72,66,100,93,65,30.00,29.91,29.86,10,10,2,10,5,,0.00,6,Rain,161
2013-10-8,68,64,59,68,54,48,100,74,60,30.18,30.09,29.95,10,10,4,21,11,28,0.00,8,Rain,37
2013-10-9,75,65,55,50,48,45,77,57,34,30.22,30.16,30.12,10,10,10,15,9,21,0.00,3,,13
2013-10-10,78,64,51,54,48,43,82,61,30,30.15,30.09,30.02,10,10,10,12,4,17,0.00,0,,336
2013-10-11,82,70,59,55,54,52,88,61,35,30.06,30.01,29.96,10,10,10,13,3,16,0.00,3,,274
2013-10-12,78,66,55,63,58,54,100,73,42,30.11,30.05,30.00,10,10,10,7,1,,0.00,4,,40
2013-10-13,77,70,64,68,61,59,100,77,54,30.21,30.16,30.11,10,10,10,13,5,17,0.00,8,Rain,30
2013-10-14,69,66,64,64,63,59,100,90,68,30.23,30.19,30.16,10,10,7,15,8,21,0.00,8,,28
2013-10-15,75,67,59,63,54,46,100,70,36,30.19,30.13,30.07,10,10,10,17,8,24,0.00,3,,33
2013-10-16,77,65,53,61,56,52,100,74,47,30.10,30.05,30.00,10,10,10,6,1,,0.00,4,,52
2013-10-17,82,72,62,66,62,59,100,75,45,30.03,29.98,29.92,10,10,10,13,4,17,0.00,3,,222
2013-10-18,78,73,68,72,66,61,100,83,54,30.04,29.98,29.94,10,10,5,7,2,,0.00,7,Rain,206
2013-10-19,73,66,60,70,57,46,100,73,38,30.00,29.97,29.94,10,10,5,12,4,16,0.00,4,Rain,258
2013-10-20,71,61,51,55,48,43,100,67,35,30.11,30.05,29.98,10,10,10,12,4,,0.00,1,,58
2013-10-21,71,58,46,55,50,46,100,75,43,30.17,30.11,30.05,10,10,10,7,2,,0.00,0,,101
2013-10-22,68,64,59,61,57,52,100,84,56,30.08,29.98,29.88,10,10,7,7,1,,0.00,6,Rain,224
2013-10-23,71,60,46,63,43,27,100,60,20,30.10,29.90,29.82,10,9,2,22,8,32,0.00,1,,271
2013-10-24,66,50,35,41,33,28,87,56,26,30.24,30.17,30.10,10,10,10,10,2,,0.00,1,,252
2013-10-25,59,49,37,37,34,28,81,58,31,30.39,30.31,30.20,10,10,10,13,4,17,0.00,1,,13
2013-10-26,62,47,32,36,30,25,93,58,25,30.38,30.29,30.18,10,10,5,9,3,,0.00,0,,48
2013-10-27,73,57,41,48,40,34,82,58,35,30.18,30.14,30.11,10,10,10,10,5,16,0.00,0,,256
2013-10-28,73,62,51,55,51,46,100,72,38,30.32,30.24,30.17,10,10,7,8,1,,0.00,6,Rain,264
2013-10-29,77,62,48,55,49,45,100,68,32,30.38,30.32,30.29,10,10,10,9,2,17,0.00,2,,281
2013-10-30,78,64,50,55,50,46,100,69,34,30.36,30.29,30.22,10,10,10,9,2,,0.00,1,,221
2013-10-31,78,64,51,63,57,52,100,75,44,30.24,30.13,29.99,10,10,7,14,5,20,0.00,1,,176